1509289200.8,17020,10.31,70868.5,-8.61,-9.79,-9.83,0,*5E
1509289202.0,17021,10.31,70870.8,-8.59,-9.79,-9.79,0,*51
1509289203.19,17022,10.31,70866.8,-8.59,-9.97,-9.93,0,*56
1509289204.39,17023,10.25,70860.5,-8.59,-10.09,-10.05,0,*5F
1509289205.58,17024,10.31,70866.0,-8.59,-9.97,-10.09,0,*6B
1509289206.77,17025,10.31,70866.5,-8.55,-9.97,-10.09,0,*66
1509289207.97,17026,10.31,70872.5,-8.59,-9.97,-10.05,0,*65
1509289209.2,17027,10.31,70886.0,-8.61,-10.01,-10.09,0,*54
1509289210.4,17028,10.25,70882.0,-8.59,-10.09,-10.09,0,*58
1509289211.59,17029,10.31,70884.0,-8.59,-10.09,-10.05,0,*55
1509289212.79,17030,10.31,70886.8,-8.59,-10.09,-10.09,0,*51
1509289213.98,17031,10.31,70884.8,-8.59,-10.09,-9.97,0,*6F
1509289215.19,17032,10.31,70882.0,-8.59,-10.19,-10.19,0,*53
1509289216.4,17033,10.31,70882.5,-8.59,-10.19,-10.09,0,*53
1509289217.6,17034,10.31,70888.0,-8.59,-10.09,-10.09,0,*55
1509289218.81,17035,10.31,70864.5,-8.59,-10.19,-10.23,0,*5D
1509289220.02,17036,10.31,70856.3,-8.59,-10.31,-10.27,0,*50
1509289221.22,17037,10.31,70856.5,-8.59,-10.23,-10.09,0,*5E
1509289222.42,17038,10.31,70860.0,-8.59,-10.23,-9.97,0,*6E
1509289223.66,17039,10.25,70844.3,-8.61,-10.35,-10.27,0,*50
1509289224.91,17040,10.31,70844.0,-8.61,-10.35,-10.27,0,*5E
1509289226.18,17041,10.31,70840.5,-8.61,-10.41,-10.35,0,*5F
1509289227.45,17042,10.31,70846.5,-8.61,-10.45,-10.41,0,*5B
1509289228.68,17043,10.31,70836.5,-8.61,-10.53,-10.45,0,*59
1509289229.93,17044,10.31,70832.0,-8.61,-10.35,-10.27,0,*5A
1509289231.18,17045,10.31,70826.0,-8.61,-10.35,-10.27,0,*5B
1509289232.42,17046,10.31,70832.8,-8.61,-10.15,-10.09,0,*56
1509289233.66,17047,10.31,70822.5,-8.61,-10.23,-10.01,0,*5A
1509289234.89,17048,10.31,70820.3,-8.61,-10.09,-10.01,0,*5D
1509289236.13,17049,10.31,70814.0,-8.61,-10.01,-10.01,0,*54
1509289237.37,17050,10.31,70816.3,-8.61,-9.97,-10.01,0,*6B
1509289238.56,17051,10.25,70818.5,-8.63,-9.89,-9.75,0,*5C
1509289239.76,17052,10.31,70828.5,-8.63,-9.75,-9.71,0,*58
1509289240.96,17053,10.31,70826.5,-8.63,-9.71,-9.71,0,*5D
1509289242.21,17054,10.31,70822.8,-8.61,-9.71,-9.61,0,*59
1509289243.46,17055,10.25,70818.0,-8.61,-9.83,-9.75,0,*50
1509289244.7,17056,10.31,70816.3,-8.63,-9.83,-9.61,0,*54
1509289245.95,17057,10.31,70818.8,-8.61,-9.71,-9.57,0,*5F
1509289247.22,17058,10.31,70832.3,-8.61,-9.57,-9.57,0,*54
1509289248.49,17059,10.25,70848.8,-8.61,-9.49,-9.49,0,*55
1509289249.77,17060,10.31,70864.5,-8.61,-9.49,-9.41,0,*57
1509289251.03,17061,10.31,70866.5,-8.61,-9.57,-9.57,0,*5E
1509289252.27,17062,10.31,70872.3,-8.59,-9.61,-9.53,0,*57
1509289253.55,17063,10.25,70874.5,-8.61,-9.49,-9.49,0,*5C
1509289254.82,17064,10.31,70878.3,-8.61,-9.49,-9.49,0,*5B
1509289256.05,17065,10.31,70874.0,-8.61,-9.75,-9.71,0,*5E
1509289257.31,17066,10.31,70906.0,-8.61,-9.71,-9.61,0,*58
1509289258.57,17067,10.31,70906.8,-8.61,-9.61,-9.57,0,*5D
1509289259.81,17068,10.31,70898.0,-8.61,-9.71,-9.71,0,*57
1509289261.05,17069,10.31,70870.5,-8.61,-9.89,-9.83,0,*5C
1509289262.29,17070,10.31,70864.0,-8.61,-9.89,-9.83,0,*54
1509289263.54,17071,10.31,70858.5,-8.61,-9.83,-9.89,0,*55
1509289264.76,17072,10.31,70880.0,-8.61,-10.09,-9.89,0,*6C
1509289265.97,17073,10.31,70880.8,-8.63,-10.09,-10.01,0,*57
1509289267.21,17074,10.25,70884.0,-8.61,-10.15,-10.23,0,*5F
1509289268.45,17075,10.31,70884.8,-8.61,-10.15,-10.23,0,*5E
1509289269.69,17076,10.31,70880.5,-8.61,-10.27,-10.27,0,*58
1509289270.93,17077,10.25,70866.5,-8.61,-10.57,-10.53,0,*5D
1509289272.14,17078,10.25,70870.0,-8.63,-10.45,-10.53,0,*53
1509289273.34,17079,10.31,70862.3,-8.63,-10.53,-10.45,0,*52
1509289274.58,17080,10.25,70854.5,-8.63,-10.67,-10.57,0,*50
1509289275.82,17081,10.25,70842.3,-8.63,-10.67,-10.57,0,*51
1509289277.03,17082,10.25,70840.5,-8.63,-10.53,-10.53,0,*51
1509289278.27,17083,10.31,70840.3,-8.65,-10.19,-10.19,0,*56
1509289279.48,17084,10.31,70838.3,-8.63,-10.15,-10.09,0,*5A
1509289280.69,17085,10.31,70828.5,-8.63,-10.23,-10.23,0,*56
1509289281.91,17086,10.31,70820.8,-8.63,-10.15,-10.15,0,*55
1509289283.15,17087,10.31,70818.5,-8.65,-10.15,-10.19,0,*5E
1509289284.36,17088,10.31,70826.5,-8.63,-10.23,-10.23,0,*5B
1509289285.57,17089,10.31,70808.0,-8.63,-10.23,-10.27,0,*5E
1509289286.82,17090,10.31,70788.5,-8.65,-10.19,-10.19,0,*54
1509289288.02,17091,10.31,70802.3,-8.63,-10.23,-10.23,0,*53
1509289289.28,17092,10.31,70804.3,-8.65,-10.41,-10.45,0,*52
1509289290.54,17093,10.31,70784.8,-8.65,-10.41,-10.23,0,*53
1509289291.79,17094,10.31,70778.8,-8.65,-10.31,-10.27,0,*57
1509289293.03,17095,10.31,70774.8,-8.65,-10.19,-10.27,0,*5C
1509289294.27,17096,10.25,70774.8,-8.65,-10.31,-10.19,0,*58
1509289295.48,17097,10.31,70796.3,-8.63,-10.09,-10.01,0,*5D
1509289296.72,17098,10.31,70798.5,-8.65,-10.15,-10.05,0,*5D
1509289297.96,17099,10.25,70790.3,-8.65,-10.15,-10.15,0,*5D
1509289299.2,17100,10.31,70784.0,-8.65,-10.15,-10.15,0,*5C
1509289300.41,17101,10.31,70790.0,-8.63,-10.15,-10.09,0,*56
1509289301.62,17102,10.31,70790.5,-8.63,-10.01,-10.01,0,*58
1509289302.86,17103,10.31,70774.5,-8.65,-10.15,-9.93,0,*69
1509289304.06,17104,10.31,70770.5,-8.63,-10.09,-10.01,0,*56
1509289305.31,17105,10.25,70784.5,-8.65,-10.15,-10.01,0,*5C
1509289306.5,17106,10.31,70786.8,-8.63,-9.97,-9.89,0,*53
1509289307.71,17107,10.31,70796.5,-8.63,-9.97,-9.83,0,*58
1509289308.93,17108,10.31,70814.8,-8.63,-9.97,-9.83,0,*57
1509289310.15,17109,10.25,70824.0,-8.63,-9.89,-9.83,0,*59
1509289311.37,17110,10.31,70844.5,-8.65,-10.01,-9.89,0,*65
1509289312.6,17111,10.25,70860.8,-8.65,-10.01,-9.79,0,*6B
1509289313.82,17112,10.25,70870.3,-8.65,-9.79,-9.79,0,*5F
1509289315.03,17113,10.31,70870.8,-8.63,-10.05,-10.15,0,*59
1509289316.26,17114,10.25,70872.8,-8.65,-10.05,-10.01,0,*5D
1509289317.48,17115,10.25,70878.8,-8.65,-9.93,-9.79,0,*5C
1509289318.72,17116,10.31,70880.8,-8.63,-9.83,-9.83,0,*5D
1509289319.92,17117,10.31,70866.3,-8.63,-9.75,-9.75,0,*5C
1509289321.14,17118,10.25,70856.8,-8.63,-9.75,-9.83,0,*5A
1509289322.34,17119,10.31,70866.0,-8.63,-9.75,-9.75,0,*52
1509289323.57,17120,10.31,70868.5,-8.65,-9.79,-9.79,0,*5E
1509289324.79,17121,10.31,70866.3,-8.65,-9.75,-9.67,0,*5C
1509289326.02,17122,10.31,70860.8,-8.65,-9.79,-9.67,0,*53
1509289327.24,17123,10.31,70866.8,-8.65,-9.75,-9.67,0,*5E
1509289328.44,17124,10.25,70874.5,-8.63,-9.71,-9.71,0,*5C
1509289329.69,17125,10.25,70880.8,-8.63,-9.61,-9.61,0,*5D
1509289330.93,17126,10.31,70888.8,-8.63,-9.61,-9.61,0,*5E
1509289332.17,17127,10.25,70888.8,-8.63,-9.57,-9.49,0,*50
1509289333.41,17128,10.31,70892.8,-8.63,-9.57,-9.49,0,*5F
1509289334.64,17129,10.31,70902.0,-8.63,-9.61,-9.57,0,*54
1509289335.88,17130,10.31,70904.5,-8.63,-9.61,-9.57,0,*5C
1509289337.1,17131,10.31,70904.5,-8.63,-9.61,-9.71,0,*59
1509289338.34,17132,10.31,70910.8,-8.63,-9.49,-9.57,0,*54
1509289339.59,17133,10.25,70914.0,-8.63,-9.61,-9.49,0,*50
1509289340.86,17134,10.31,70916.5,-8.61,-9.49,-9.49,0,*5F
1509289342.14,17135,10.25,70918.0,-8.61,-9.49,-9.49,0,*5E
1509289343.38,17136,10.31,70918.5,-8.63,-9.49,-9.49,0,*5F
1509289344.65,17137,10.25,70916.8,-8.61,-9.57,-9.57,0,*5C
1509289345.89,17138,10.31,70922.0,-8.61,-9.61,-9.75,0,*56
1509289347.17,17139,10.31,70916.3,-8.61,-9.61,-9.61,0,*52
1509289348.4,17140,10.25,70918.3,-8.61,-9.71,-9.71,0,*5C
1509289349.67,17141,10.31,70910.8,-8.61,-9.83,-9.83,0,*5D
1509289350.89,17142,10.31,70898.5,-8.61,-9.97,-9.89,0,*51
1509289352.11,17143,10.31,70886.5,-8.61,-9.89,-9.89,0,*5F
1509289353.33,17144,10.31,70874.5,-8.61,-9.97,-9.89,0,*57
1509289354.55,17145,10.25,70866.5,-8.61,-9.97,-9.89,0,*56
1509289355.79,17146,10.25,70862.5,-8.61,-9.89,-9.83,0,*50
1509289357.06,17147,10.31,70864.0,-8.61,-9.83,-9.83,0,*5B
1509289358.28,17148,10.25,70868.0,-8.59,-9.71,-9.83,0,*52
1509289359.51,17149,10.31,70882.0,-8.61,-9.75,-9.75,0,*55
1509289360.73,17150,10.31,70882.3,-8.59,-9.75,-9.83,0,*5F
1509289361.93,17151,10.31,70892.5,-8.59,-9.79,-9.79,0,*57
1509289363.11,17152,10.25,70898.0,-8.59,-9.93,-9.97,0,*50
1509289364.3,17153,10.31,70898.8,-8.59,-9.93,-9.97,0,*51
1509289365.52,17154,10.25,70900.8,-8.61,-9.97,-9.97,0,*59
1509289366.74,17155,10.31,70914.8,-8.59,-10.19,-10.19,0,*53
1509289367.99,17156,10.31,70922.3,-8.61,-10.35,-10.35,0,*5B
1509289369.23,17157,10.31,70898.0,-8.61,-10.23,-10.27,0,*5E
1509289370.49,17158,10.31,70866.5,-8.61,-10.45,-10.67,0,*55
1509289371.72,17159,10.25,70838.3,-8.63,-10.79,-10.85,0,*55
1509289372.96,17160,10.31,70864.0,-8.63,-11.07,-11.19,0,*53
1509289374.2,17161,10.31,70846.3,-8.63,-11.29,-11.41,0,*53
1509289375.41,17162,10.31,70848.8,-8.63,-11.01,-10.89,0,*5F
1509289376.7,17163,10.31,70864.0,-8.65,-10.63,-10.63,0,*59
1509289377.93,17164,10.31,70852.0,-8.65,-10.89,-10.89,0,*5E
1509289379.17,17165,10.25,70838.8,-8.65,-11.15,-11.15,0,*5F
1509289380.39,17166,10.31,70858.0,-8.65,-10.85,-10.85,0,*5C
1509289381.62,17167,10.31,70866.3,-8.65,-10.89,-10.89,0,*5D
1509289382.84,17168,10.31,70738.8,-8.67,-11.01,-11.01,0,*50
1509289384.05,17169,10.31,70752.8,-8.67,-11.23,-11.23,0,*51
1509289385.26,17170,10.25,70716.0,-8.67,-11.15,-11.15,0,*59
1509289386.49,17171,10.25,70706.5,-8.69,-11.19,-11.19,0,*56
1509289387.75,17172,10.25,70726.0,-8.69,-11.19,-11.29,0,*56
1509289389.02,17173,10.25,70704.3,-8.69,-11.01,-11.07,0,*52
1509289390.32,17174,10.25,70740.3,-8.69,-11.07,-11.07,0,*53
1509289391.58,17175,10.31,70740.8,-8.69,-11.07,-10.93,0,*5E
1509289392.82,17176,10.25,70726.0,-8.69,-10.93,-10.93,0,*51
1509289394.07,17177,10.31,70748.0,-8.71,-10.67,-10.53,0,*5E
1509289395.29,17178,10.25,70762.5,-8.71,-10.35,-10.35,0,*56
1509289396.51,17179,10.31,70762.3,-8.71,-10.31,-10.35,0,*53
1509289397.73,17180,10.25,70772.5,-8.71,-10.19,-10.35,0,*5F
1509289398.95,17181,10.31,70792.3,-8.71,-10.19,-10.19,0,*50
1509289400.2,17182,10.31,70824.8,-8.69,-10.19,-10.19,0,*5A
1509289401.41,17183,10.25,70792.5,-8.71,-10.23,-10.31,0,*51
1509289402.62,17184,10.25,70778.8,-8.71,-10.09,-10.19,0,*54
1509289403.83,17185,10.31,70768.3,-8.71,-10.09,-10.23,0,*5C
1509289405.06,17186,10.31,70812.8,-8.69,-10.09,-10.23,0,*56
1509289406.3,17187,10.31,70830.5,-8.69,-10.19,-10.23,0,*56
1509289407.54,17188,10.31,70818.0,-8.69,-10.19,-10.23,0,*59
1509289408.74,17189,10.25,70832.3,-8.67,-10.05,-10.05,0,*5F
1509289409.98,17190,10.25,70836.3,-8.69,-10.23,-10.23,0,*59
1509289411.22,17191,10.31,70846.3,-8.69,-10.31,-10.31,0,*58
1509289412.46,17192,10.31,70852.3,-8.69,-10.31,-10.23,0,*58
1509289413.7,17193,10.31,70858.3,-8.69,-10.31,-10.31,0,*5A
1509289414.94,17194,10.25,70850.8,-8.69,-10.23,-10.23,0,*5D
1509289416.18,17195,10.31,70834.5,-8.69,-10.23,-10.23,0,*5C
1509289417.42,17196,10.25,70834.8,-8.69,-10.19,-10.09,0,*5E
1509289418.65,17197,10.31,70834.3,-8.69,-10.09,-10.09,0,*5E
1509289419.87,17198,10.31,70834.3,-8.67,-10.15,-10.15,0,*5F
1509289421.11,17199,10.25,70850.3,-8.69,-10.19,-10.09,0,*51
1509289422.34,17200,10.31,70864.5,-8.69,-10.09,-10.05,0,*5F
1509289423.57,17201,10.31,70852.5,-8.69,-10.45,-10.45,0,*52
1509289424.81,17202,10.31,70852.8,-8.67,-10.45,-10.41,0,*5B
1509289426.06,17203,10.31,70854.3,-8.69,-10.45,-10.35,0,*57
1509289427.27,17204,10.31,70864.8,-8.67,-10.31,-10.31,0,*59
1509289428.52,17205,10.25,70868.5,-8.69,-10.35,-10.35,0,*56
1509289429.79,17206,10.31,70844.5,-8.69,-10.63,-10.57,0,*52
1509289431.06,17207,10.31,70826.0,-8.69,-10.67,-10.53,0,*53
1509289432.29,17208,10.31,70828.8,-8.69,-10.49,-10.53,0,*50
1509289433.56,17209,10.31,70802.3,-8.71,-10.75,-10.63,0,*54
1509289434.83,17210,10.31,70814.0,-8.71,-10.67,-10.63,0,*5F
1509289436.05,17211,10.25,70840.0,-8.71,-10.35,-10.35,0,*5A
1509289437.27,17212,10.31,70862.5,-8.71,-10.35,-10.49,0,*52
1509289438.48,17213,10.31,70844.5,-8.71,-10.45,-10.49,0,*54
1509289439.71,17214,10.31,70858.3,-8.69,-10.31,-10.23,0,*55
1509289440.93,17215,10.31,70854.3,-8.71,-10.23,-10.23,0,*5E
1509289442.15,17216,10.25,70858.3,-8.71,-10.19,-10.19,0,*5D
1509289443.38,17217,10.25,70858.5,-8.69,-9.97,-10.19,0,*6B
1509289444.6,17218,10.25,70844.0,-8.69,-9.97,-9.97,0,*5A
1509289445.83,17219,10.25,70832.3,-8.69,-10.05,-9.97,0,*68
1509289447.03,17220,10.31,70826.8,-8.67,-10.01,-9.89,0,*67
1509289448.26,17221,10.31,70830.8,-8.69,-10.05,-10.05,0,*50
1509289449.49,17222,10.25,70834.5,-8.69,-10.05,-10.09,0,*5F
1509289450.73,17223,10.31,70852.8,-8.69,-10.19,-10.31,0,*58
1509289451.95,17224,10.25,70858.0,-8.71,-10.35,-10.35,0,*5C
1509289453.2,17225,10.31,70862.5,-8.69,-10.35,-10.35,0,*54
1509289454.42,17226,10.25,70856.0,-8.67,-10.35,-10.35,0,*59
1509289455.64,17227,10.31,70852.8,-8.71,-10.23,-10.31,0,*5C
1509289456.87,17228,10.31,70848.0,-8.69,-10.23,-10.09,0,*51
1509289458.09,17229,10.31,70844.5,-8.71,-10.35,-10.31,0,*55
1509289459.33,17230,10.31,70854.0,-8.69,-10.45,-10.35,0,*57
1509289460.58,17231,10.31,70846.8,-8.69,-10.35,-10.35,0,*51
1509289461.81,17232,10.31,70854.8,-8.69,-10.09,-10.09,0,*52
1509289463.03,17233,10.25,70842.3,-8.69,-9.93,-9.97,0,*57
1509289464.31,17234,10.31,70846.5,-8.69,-9.83,-9.83,0,*54
1509289465.56,17235,10.25,70858.3,-8.69,-9.71,-9.83,0,*58
1509289466.79,17236,10.31,70854.3,-8.69,-9.79,-9.79,0,*56
1509289468.02,17237,10.25,70852.0,-8.69,-9.71,-9.71,0,*57
1509289469.29,17238,10.31,70856.5,-8.69,-9.57,-9.57,0,*58
1509289470.55,17239,10.31,70858.3,-8.69,-9.57,-9.57,0,*59
1509289471.82,17240,10.25,70860.0,-8.69,-9.57,-9.57,0,*57
1509289473.09,17241,10.31,70868.3,-8.69,-9.57,-9.53,0,*52
1509289474.36,17242,10.31,70870.3,-8.69,-9.57,-9.53,0,*51
1509289475.61,17243,10.25,70872.0,-8.67,-9.53,-9.49,0,*51
1509289476.88,17244,10.31,70880.0,-8.69,-9.53,-9.53,0,*53
1509289478.13,17245,10.31,70874.3,-8.69,-9.67,-9.57,0,*51
1509289479.38,17246,10.25,70868.0,-8.67,-9.53,-9.53,0,*5F
1509289480.62,17247,10.31,70870.0,-8.67,-9.57,-9.57,0,*5E
1509289481.88,17248,10.25,70860.8,-8.69,-9.57,-9.57,0,*5F
1509289483.13,17249,10.25,70856.3,-8.67,-9.61,-9.61,0,*50
1509289484.37,17250,10.31,70856.3,-8.67,-9.53,-9.61,0,*59
1509289485.59,17251,10.31,70852.3,-8.67,-9.67,-9.57,0,*5A
1509289486.86,17252,10.31,70850.3,-8.65,-9.53,-9.53,0,*58
1509289488.14,17253,10.31,70850.5,-8.65,-9.49,-9.53,0,*52
1509289489.41,17254,10.31,70852.8,-8.65,-9.45,-9.49,0,*52
1509289490.68,17255,10.31,70856.3,-8.65,-9.49,-9.49,0,*5F
1509289491.95,17256,10.31,70864.3,-8.65,-9.49,-9.49,0,*5C
1509289493.23,17257,10.31,70878.8,-8.65,-9.49,-9.53,0,*56
1509289494.48,17258,10.25,70878.0,-8.63,-9.41,-9.45,0,*50
1509289495.75,17259,10.31,70884.0,-8.65,-9.45,-9.49,0,*5F
1509289497.03,17260,10.31,70894.5,-8.65,-9.49,-9.49,0,*59
1509289498.3,17261,10.31,70894.0,-8.65,-9.49,-9.53,0,*53
1509289499.57,17262,10.25,70892.8,-8.65,-9.49,-9.53,0,*50
1509289500.85,17263,10.25,70898.0,-8.65,-9.49,-9.53,0,*51
1509289502.12,17264,10.31,70900.3,-8.65,-9.49,-9.61,0,*57
1509289503.37,17265,10.25,70892.5,-8.63,-9.49,-9.49,0,*5A
1509289504.61,17266,10.25,70896.3,-8.63,-9.49,-9.49,0,*59
1509289505.86,17267,10.31,70900.3,-8.63,-9.49,-9.49,0,*58
1509289507.1,17268,10.31,70902.3,-8.63,-9.49,-9.49,0,*57
1509289508.34,17269,10.31,70902.5,-8.63,-9.53,-9.49,0,*5D
1509289509.59,17270,10.31,70902.5,-8.63,-9.49,-9.49,0,*5E
1509289510.86,17271,10.31,70904.3,-8.65,-9.61,-9.61,0,*59
1509289512.1,17272,10.25,70906.5,-8.63,-9.61,-9.61,0,*5C
1509289513.34,17273,10.25,70908.0,-8.63,-9.49,-9.49,0,*5D
1509289514.58,17274,10.25,70914.3,-8.63,-9.57,-9.57,0,*5A
1509289515.82,17275,10.25,70912.8,-8.63,-9.61,-9.57,0,*5E
1509289517.05,17276,10.31,70922.5,-8.63,-9.57,-9.57,0,*58
1509289518.3,17277,10.31,70930.0,-8.63,-9.49,-9.49,0,*59
1509289519.55,17278,10.31,70930.0,-8.63,-9.49,-9.49,0,*56
1509289520.78,17279,10.25,70934.8,-8.63,-9.57,-9.49,0,*58
1509289522.03,17280,10.25,70930.0,-8.63,-9.61,-9.61,0,*51
1509289523.27,17281,10.31,70936.5,-8.63,-9.61,-9.61,0,*50
1509289524.49,17282,10.31,70936.0,-8.63,-9.71,-9.61,0,*52
1509289525.7,17283,10.25,70942.0,-8.63,-9.71,-9.71,0,*52
1509289526.94,17284,10.25,70948.0,-8.63,-9.61,-9.61,0,*55
1509289528.16,17285,10.31,70952.5,-8.63,-9.71,-9.61,0,*55
1509289529.36,17286,10.25,70952.8,-8.63,-9.75,-9.71,0,*53
1509289530.58,17287,10.25,70960.3,-8.63,-9.61,-9.71,0,*57
1509289531.83,17288,10.31,70970.3,-8.63,-9.61,-9.61,0,*59
1509289533.05,17289,10.31,70970.3,-8.63,-9.61,-9.71,0,*59
1509289534.27,17290,10.25,70968.3,-8.63,-9.71,-9.83,0,*5D
1509289535.47,17291,10.25,70968.5,-8.63,-9.71,-9.75,0,*55
1509289536.67,17292,10.25,70962.3,-8.63,-9.89,-10.09,0,*62
1509289537.91,17293,10.25,70956.3,-8.63,-10.35,-10.41,0,*50
1509289539.12,17294,10.25,70938.8,-8.63,-10.27,-10.27,0,*54
1509289540.33,17295,10.31,70910.5,-8.63,-10.23,-10.23,0,*55
1509289541.54,17296,10.31,70916.8,-8.63,-10.45,-10.45,0,*56
1509289542.8,17297,10.25,70906.8,-8.65,-10.85,-10.75,0,*5E
1509289544.06,17298,10.31,70888.8,-8.65,-10.85,-10.71,0,*55
1509289545.32,17299,10.31,70862.8,-8.65,-10.85,-10.63,0,*57
1509289546.6,17300,10.25,70854.0,-8.65,-10.75,-10.75,0,*5E
1509289547.87,17301,10.31,70848.5,-8.65,-10.89,-10.75,0,*5C
1509289549.1,17302,10.31,70842.0,-8.65,-10.89,-10.89,0,*5C
1509289550.39,17303,10.25,70848.3,-8.69,-10.63,-10.63,0,*51
1509289551.6,17304,10.25,70842.5,-8.67,-10.49,-10.57,0,*57
1509289552.82,17305,10.25,70834.3,-8.67,-10.31,-10.31,0,*59
1509289554.04,17306,10.25,70838.3,-8.67,-10.15,-10.27,0,*5B
1509289555.25,17307,10.31,70852.0,-8.67,-10.27,-10.31,0,*5C
1509289556.49,17308,10.25,70842.8,-8.67,-10.41,-10.45,0,*50
1509289557.75,17309,10.25,70816.3,-8.67,-10.63,-10.63,0,*55
1509289559.0,17310,10.25,70844.8,-8.67,-10.31,-10.41,0,*5A
1509289560.21,17311,10.31,70816.8,-8.67,-10.27,-10.27,0,*5C
1509289561.48,17312,10.31,70864.3,-8.67,-10.63,-10.63,0,*5F
1509289562.78,17313,10.31,70874.0,-8.69,-10.67,-10.79,0,*5F
1509289564.08,17314,10.25,70830.5,-8.69,-10.67,-10.67,0,*57
1509289565.34,17315,10.25,70844.3,-8.69,-10.63,-10.49,0,*5E
1509289566.61,17316,10.25,70878.5,-8.67,-10.41,-10.41,0,*5B
1509289567.85,17317,10.25,70864.0,-8.69,-10.35,-10.45,0,*53
1509289569.09,17318,10.25,70906.5,-8.69,-10.45,-10.49,0,*57
1509289570.33,17319,10.25,70910.8,-8.69,-10.49,-10.49,0,*5A
1509289571.62,17320,10.25,70904.3,-8.69,-10.79,-10.79,0,*50
1509289572.91,17321,10.31,70878.5,-8.69,-10.79,-10.79,0,*51
1509289574.15,17322,10.25,70884.5,-8.69,-10.93,-11.01,0,*58
1509289575.39,17323,10.25,70894.0,-8.67,-10.57,-10.71,0,*59
1509289576.63,17324,10.25,70896.0,-8.69,-10.35,-10.45,0,*53
1509289577.87,17325,10.31,70900.0,-8.69,-10.45,-10.49,0,*59
1509289579.1,17326,10.25,70876.5,-8.69,-10.53,-10.53,0,*56
1509289580.34,17327,10.25,70872.0,-8.69,-10.49,-10.49,0,*57
1509289581.58,17328,10.25,70882.8,-8.69,-10.31,-10.31,0,*58
1509289582.82,17329,10.25,70876.3,-8.73,-10.27,-10.35,0,*51
1509289584.04,17330,10.31,70890.3,-8.71,-10.35,-10.31,0,*5C
1509289585.26,17331,10.25,70868.5,-8.71,-10.31,-10.31,0,*59
1509289586.47,17332,10.31,70872.5,-8.71,-10.23,-10.19,0,*53
1509289587.7,17333,10.25,70866.0,-8.71,-10.35,-10.35,0,*5B
1509289588.94,17334,10.31,70852.0,-8.69,-10.35,-10.35,0,*55
1509289590.19,17335,10.31,70852.8,-8.69,-10.35,-10.31,0,*50
1509289591.41,17336,10.31,70860.0,-8.71,-10.35,-10.35,0,*5E
1509289592.65,17337,10.25,70836.0,-8.69,-10.31,-10.31,0,*56
1509289593.89,17338,10.31,70846.5,-8.69,-10.31,-10.23,0,*5A
1509289595.1,17339,10.31,70844.0,-8.71,-10.31,-10.23,0,*52
1509289596.35,17340,10.31,70764.3,-8.69,-10.31,-10.31,0,*56
1509289597.59,17341,10.25,70794.3,-8.69,-10.23,-10.31,0,*54
1509289598.84,17342,10.31,70872.5,-8.69,-10.19,-10.19,0,*54
1509289600.07,17343,10.25,70826.8,-8.69,-10.45,-10.45,0,*55
1509289601.29,17344,10.31,70826.8,-8.71,-10.35,-10.35,0,*5B
1509289602.51,17345,10.31,70796.8,-8.71,-10.45,-10.35,0,*5D
1509289603.73,17346,10.31,70810.0,-8.71,-10.35,-10.35,0,*59
1509289604.95,17347,10.31,70826.3,-8.71,-10.45,-10.35,0,*5F
1509289606.19,17348,10.25,70826.0,-8.69,-10.35,-10.31,0,*5A
1509289607.43,17349,10.31,70830.8,-8.69,-10.31,-10.23,0,*5C
1509289608.68,17350,10.25,70820.3,-8.69,-10.35,-10.35,0,*57
1509289609.93,17351,10.25,70810.5,-8.69,-10.35,-10.31,0,*52
1509289611.17,17352,10.31,70812.5,-8.69,-10.31,-10.35,0,*51
1509289612.41,17353,10.25,70818.0,-8.69,-10.23,-10.23,0,*54
1509289613.65,17354,10.25,70818.0,-8.69,-10.05,-10.19,0,*5E
1509289614.88,17355,10.25,70828.0,-8.69,-10.05,-10.09,0,*5E
1509289616.1,17356,10.31,70834.0,-8.69,-9.97,-10.05,0,*62
1509289617.34,17357,10.31,70842.0,-8.69,-10.19,-10.23,0,*59
1509289618.58,17358,10.25,70842.3,-8.69,-10.05,-10.31,0,*58
1509289619.82,17359,10.31,70848.0,-8.69,-10.19,-10.23,0,*57
1509289621.03,17360,10.25,70856.8,-8.71,-10.19,-10.05,0,*50
1509289622.26,17361,10.31,70870.8,-8.69,-10.05,-10.05,0,*55
1509289623.49,17362,10.25,70870.3,-8.69,-9.97,-10.05,0,*65
1509289624.73,17363,10.25,70870.3,-8.69,-10.35,-10.31,0,*53
1509289625.96,17364,10.25,70868.0,-8.69,-10.09,-10.09,0,*50
1509289627.19,17365,10.25,70864.3,-8.69,-10.09,-9.97,0,*6E
1509289628.41,17366,10.31,70866.8,-8.69,-10.09,-9.97,0,*6D
1509289629.64,17367,10.31,70860.0,-8.69,-9.97,-9.97,0,*53
1509289630.86,17368,10.25,70858.0,-8.69,-9.97,-9.93,0,*58
1509289632.09,17369,10.25,70856.0,-8.69,-10.05,-10.05,0,*5D
1509289633.32,17370,10.25,70858.3,-8.69,-9.97,-10.01,0,*62
1509289634.55,17371,10.31,70856.3,-8.69,-10.05,-9.97,0,*67
1509289635.77,17372,10.25,70856.5,-8.69,-10.05,-9.97,0,*64
1509289637.02,17373,10.25,70858.8,-8.69,-9.97,-9.83,0,*53
1509289638.24,17374,10.25,70860.8,-8.69,-9.97,-9.97,0,*51
1509289639.44,17375,10.25,70864.5,-8.71,-9.97,-9.93,0,*5D
1509289640.64,17376,10.31,70868.8,-8.71,-9.97,-9.93,0,*5E
1509289641.83,17377,10.25,70878.8,-8.71,-9.93,-9.93,0,*5B
1509289643.03,17378,10.25,70876.5,-8.71,-9.93,-9.93,0,*54
1509289644.23,17379,10.25,70882.3,-8.71,-9.97,-9.93,0,*51
1509289645.42,17380,10.25,70886.8,-8.71,-9.93,-9.97,0,*57
1509289646.62,17381,10.31,70890.5,-8.71,-10.05,-10.05,0,*52
1509289647.83,17382,10.25,70898.5,-8.71,-10.05,-10.05,0,*51
1509289649.03,17383,10.31,70910.8,-8.71,-10.05,-10.05,0,*50
1509289650.23,17384,10.25,70918.0,-8.71,-10.09,-10.09,0,*57
1509289651.43,17385,10.31,70924.8,-8.71,-10.05,-9.97,0,*65
1509289652.67,17386,10.25,70926.8,-8.73,-10.15,-10.09,0,*5A
1509289653.87,17387,10.25,70928.5,-8.71,-9.97,-10.05,0,*67
1509289655.07,17388,10.25,70932.5,-8.71,-10.05,-9.97,0,*68
1509289656.26,17389,10.25,70942.8,-8.71,-9.97,-9.97,0,*5A
1509289657.48,17390,10.25,70956.8,-8.71,-9.93,-9.83,0,*53
1509289658.7,17391,10.31,70982.8,-8.71,-10.19,-10.19,0,*53
1509289659.92,17392,10.31,70952.8,-8.71,-10.35,-10.45,0,*57
1509289661.14,17393,10.31,70930.8,-8.71,-10.35,-10.45,0,*56
1509289662.35,17394,10.25,70928.3,-8.71,-10.35,-10.31,0,*52
1509289663.57,17395,10.31,70962.3,-8.71,-10.35,-10.31,0,*53
1509289664.78,17396,10.25,70936.0,-8.71,-10.53,-10.53,0,*54
1509289666.07,17397,10.31,70930.3,-8.73,-10.79,-10.63,0,*5C
1509289667.34,17398,10.31,70938.5,-8.73,-10.67,-10.53,0,*5F
1509289668.55,17399,10.25,70946.0,-8.71,-10.53,-10.53,0,*5B
1509289669.76,17400,10.25,70942.3,-8.71,-10.35,-10.45,0,*5B
1509289671.05,17401,10.31,70940.0,-8.73,-10.79,-10.71,0,*57
1509289672.28,17402,10.25,70934.3,-8.73,-10.85,-10.85,0,*5C
1509289673.57,17403,10.25,70964.0,-8.73,-11.07,-11.07,0,*5D
1509289674.81,17404,10.31,70950.0,-8.73,-10.93,-10.93,0,*5A
1509289676.03,17405,10.31,70946.3,-8.75,-10.97,-10.93,0,*59
1509289677.27,17406,10.31,70958.5,-8.75,-11.07,-10.93,0,*52
1509289678.48,17407,10.31,70950.8,-8.75,-11.11,-11.11,0,*5F
1509289679.69,17408,10.25,70936.8,-8.75,-11.23,-11.23,0,*50
1509289680.95,17409,10.25,70936.0,-8.75,-11.55,-11.51,0,*55
1509289682.24,17410,10.25,70914.8,-8.77,-11.67,-11.59,0,*56
1509289683.54,17411,10.25,70908.3,-8.77,-11.67,-11.67,0,*5A
1509289684.83,17412,10.25,70924.3,-8.77,-11.55,-11.59,0,*55
1509289686.11,17413,10.25,70938.5,-8.81,-11.63,-11.59,0,*58
1509289687.4,17414,10.31,70944.0,-8.81,-11.73,-11.59,0,*5E
1509289688.66,17415,10.25,70916.0,-8.83,-11.85,-11.63,0,*5D
1509289689.9,17416,10.25,70886.5,-8.83,-12.03,-11.89,0,*57
1509289691.14,17417,10.25,70772.3,-8.83,-12.25,-12.11,0,*50
1509289692.4,17418,10.25,70718.3,-8.83,-11.85,-11.89,0,*54
1509289693.66,17419,10.31,70688.3,-8.85,-11.97,-11.73,0,*55
1509289694.9,17420,10.31,70678.0,-8.87,-12.03,-12.03,0,*57
1509289696.19,17421,10.25,70654.5,-8.87,-12.15,-12.07,0,*55
1509289697.48,17422,10.25,70640.8,-8.87,-11.67,-11.67,0,*55
1509289698.73,17423,10.31,70656.5,-8.89,-11.51,-11.51,0,*5A
1509289699.95,17424,10.25,70682.3,-8.89,-11.45,-11.45,0,*5D